owner,sensor,date,latitude,longitude,sea_surface_height_above_sea_level,qcFlag 
COMPS,ioos:station:USF.COMPS:ANM:1,2008-04-01T00:00:00Z,27.5400,-82.7400,0.041,1111122 
COMPS,ioos:station:USF.COMPS:ANM:1,2008-04-01T00:06:00Z,27.5400,-82.7400,0.026,1111122 
COMPS,ioos:station:USF.COMPS:ANM:1,2008-04-01T00:12:00Z,27.5400,-82.7400,0.021,1111122 
COMPS,ioos:station:USF.COMPS:ANM:1,2008-04-01T00:18:00Z,27.5400,-82.7400,0.014,1111122 
COMPS,ioos:station:USF.COMPS:ANM:1,2008-04-01T00:24:00Z,27.5400,-82.7400,0.025,1111122 
COMPS,ioos:station:USF.COMPS:ANM:1,2008-04-01T00:30:00Z,27.5400,-82.7400,0.04,1111122 
COMPS,ioos:station:USF.COMPS:ANM:1,2008-04-01T00:36:00Z,27.5400,-82.7400,0.021,1111122 
COMPS,ioos:station:USF.COMPS:ANM:1,2008-04-01T00:42:00Z,27.5400,-82.7400,0.012,1111122 
COMPS,ioos:station:USF.COMPS:ANM:1,2008-04-01T00:48:00Z,27.5400,-82.7400,0.008,1111122 
COMPS,ioos:station:USF.COMPS:ANM:1,2008-04-01T00:54:00Z,27.5400,-82.7400,0.011,1111122 
COMPS,ioos:station:USF.COMPS:ANM:1,2008-04-01T01:00:00Z,27.5400,-82.7400,0.015,1111122 
COMPS,ioos:station:USF.COMPS:ANM:1,2008-04-01T01:06:00Z,27.5400,-82.7400,0.005,1111122 
COMPS,ioos:station:USF.COMPS:ANM:1,2008-04-01T01:12:00Z,27.5400,-82.7400,-0.002,1111122 
COMPS,ioos:station:USF.COMPS:ANM:1,2008-04-01T01:18:00Z,27.5400,-82.7400,-0.005,1111122 
COMPS,ioos:station:USF.COMPS:ANM:1,2008-04-01T01:24:00Z,27.5400,-82.7400,0.0,1114422 
COMPS,ioos:station:USF.COMPS:ANM:1,2008-04-01T01:30:00Z,27.5400,-82.7400,-0.003,1111122 
COMPS,ioos:station:USF.COMPS:ANM:1,2008-04-01T01:36:00Z,27.5400,-82.7400,-0.008,1111122 
COMPS,ioos:station:USF.COMPS:ANM:1,2008-04-01T01:42:00Z,27.5400,-82.7400,-0.011,1111122 
COMPS,ioos:station:USF.COMPS:ANM:1,2008-04-01T01:48:00Z,27.5400,-82.7400,-0.018,1111122 
COMPS,ioos:station:USF.COMPS:ANM:1,2008-04-01T01:54:00Z,27.5400,-82.7400,-0.023,1111122 
COMPS,ioos:station:USF.COMPS:ANM:1,2008-04-01T02:00:00Z,27.5400,-82.7400,-0.029,1111122 
COMPS,ioos:station:USF.COMPS:ANM:1,2008-04-01T02:06:00Z,27.5400,-82.7400,-0.033,1111122 
COMPS,ioos:station:USF.COMPS:ANM:1,2008-04-01T02:12:00Z,27.5400,-82.7400,-0.049,1111122 
COMPS,ioos:station:USF.COMPS:ANM:1,2008-04-01T02:18:00Z,27.5400,-82.7400,-0.058,1111122 
COMPS,ioos:station:USF.COMPS:ANM:1,2008-04-01T02:24:00Z,27.5400,-82.7400,-0.064,1111122 
COMPS,ioos:station:USF.COMPS:ANM:1,2008-04-01T02:30:00Z,27.5400,-82.7400,-0.074,1111122 
COMPS,ioos:station:USF.COMPS:ANM:1,2008-04-01T02:36:00Z,27.5400,-82.7400,-0.087,1111122 
COMPS,ioos:station:USF.COMPS:ANM:1,2008-04-01T02:42:00Z,27.5400,-82.7400,-0.097,1111122 
COMPS,ioos:station:USF.COMPS:ANM:1,2008-04-01T02:48:00Z,27.5400,-82.7400,-0.113,1111122 
COMPS,ioos:station:USF.COMPS:ANM:1,2008-04-01T02:54:00Z,27.5400,-82.7400,-0.117,1111122 
COMPS,ioos:station:USF.COMPS:ANM:1,2008-04-01T03:00:00Z,27.5400,-82.7400,-0.125,1111122 
COMPS,ioos:station:USF.COMPS:ANM:1,2008-04-01T03:06:00Z,27.5400,-82.7400,-0.131,1111122 
COMPS,ioos:station:USF.COMPS:ANM:1,2008-04-01T03:12:00Z,27.5400,-82.7400,-0.141,1111122 
COMPS,ioos:station:USF.COMPS:ANM:1,2008-04-01T03:18:00Z,27.5400,-82.7400,-0.153,1111122 
COMPS,ioos:station:USF.COMPS:ANM:1,2008-04-01T03:24:00Z,27.5400,-82.7400,-0.162,1111122 
COMPS,ioos:station:USF.COMPS:ANM:1,2008-04-01T03:30:00Z,27.5400,-82.7400,-0.172,1111122 
COMPS,ioos:station:USF.COMPS:ANM:1,2008-04-01T03:36:00Z,27.5400,-82.7400,-0.18,1111122 
COMPS,ioos:station:USF.COMPS:ANM:1,2008-04-01T03:42:00Z,27.5400,-82.7400,-0.191,1111122 
COMPS,ioos:station:USF.COMPS:ANM:1,2008-04-01T03:48:00Z,27.5400,-82.7400,-0.198,1111122 
COMPS,ioos:station:USF.COMPS:ANM:1,2008-04-01T03:54:00Z,27.5400,-82.7400,-0.209,1111122 
COMPS,ioos:station:USF.COMPS:ANM:1,2008-04-01T04:00:00Z,27.5400,-82.7400,-0.227,1111122 
COMPS,ioos:station:USF.COMPS:ANM:1,2008-04-01T04:06:00Z,27.5400,-82.7400,-0.238,1111122 
COMPS,ioos:station:USF.COMPS:ANM:1,2008-04-01T04:12:00Z,27.5400,-82.7400,-0.249,1111122 
COMPS,ioos:station:USF.COMPS:ANM:1,2008-04-01T04:18:00Z,27.5400,-82.7400,-0.256,1111122 
COMPS,ioos:station:USF.COMPS:ANM:1,2008-04-01T04:24:00Z,27.5400,-82.7400,-0.267,1111122 
COMPS,ioos:station:USF.COMPS:ANM:1,2008-04-01T04:30:00Z,27.5400,-82.7400,-0.275,1111122 
COMPS,ioos:station:USF.COMPS:ANM:1,2008-04-01T04:36:00Z,27.5400,-82.7400,-0.289,1111122 
COMPS,ioos:station:USF.COMPS:ANM:1,2008-04-01T04:42:00Z,27.5400,-82.7400,-0.303,1111122 
COMPS,ioos:station:USF.COMPS:ANM:1,2008-04-01T04:48:00Z,27.5400,-82.7400,-0.31,1111122 
COMPS,ioos:station:USF.COMPS:ANM:1,2008-04-01T04:54:00Z,27.5400,-82.7400,-0.323,1111122 
COMPS,ioos:station:USF.COMPS:ANM:1,2008-04-01T05:00:00Z,27.5400,-82.7400,-0.327,1111122 
COMPS,ioos:station:USF.COMPS:ANM:1,2008-04-01T05:06:00Z,27.5400,-82.7400,-0.337,1111122 
COMPS,ioos:station:USF.COMPS:ANM:1,2008-04-01T05:12:00Z,27.5400,-82.7400,-0.347,1111122 
COMPS,ioos:station:USF.COMPS:ANM:1,2008-04-01T05:18:00Z,27.5400,-82.7400,-0.356,1111122 
COMPS,ioos:station:USF.COMPS:ANM:1,2008-04-01T05:24:00Z,27.5400,-82.7400,-0.372,1111122 
COMPS,ioos:station:USF.COMPS:ANM:1,2008-04-01T05:30:00Z,27.5400,-82.7400,-0.379,1111122 
COMPS,ioos:station:USF.COMPS:ANM:1,2008-04-01T05:36:00Z,27.5400,-82.7400,-0.386,1111122 
COMPS,ioos:station:USF.COMPS:ANM:1,2008-04-01T05:42:00Z,27.5400,-82.7400,-0.407,1111122 
COMPS,ioos:station:USF.COMPS:ANM:1,2008-04-01T05:48:00Z,27.5400,-82.7400,-0.418,1111122 
COMPS,ioos:station:USF.COMPS:ANM:1,2008-04-01T05:54:00Z,27.5400,-82.7400,-0.429,1111122 
COMPS,ioos:station:USF.COMPS:ANM:1,2008-04-01T06:00:00Z,27.5400,-82.7400,-0.434,1111122 
COMPS,ioos:station:USF.COMPS:ANM:1,2008-04-01T06:06:00Z,27.5400,-82.7400,-0.443,1111122 
COMPS,ioos:station:USF.COMPS:ANM:1,2008-04-01T06:12:00Z,27.5400,-82.7400,-0.44,1111122 
COMPS,ioos:station:USF.COMPS:ANM:1,2008-04-01T06:18:00Z,27.5400,-82.7400,-0.444,1111122 
COMPS,ioos:station:USF.COMPS:ANM:1,2008-04-01T06:24:00Z,27.5400,-82.7400,-0.464,1111122 
COMPS,ioos:station:USF.COMPS:ANM:1,2008-04-01T06:30:00Z,27.5400,-82.7400,-0.471,1111122 
COMPS,ioos:station:USF.COMPS:ANM:1,2008-04-01T06:36:00Z,27.5400,-82.7400,-0.47,1111122 
COMPS,ioos:station:USF.COMPS:ANM:1,2008-04-01T06:42:00Z,27.5400,-82.7400,-0.481,1111122 
COMPS,ioos:station:USF.COMPS:ANM:1,2008-04-01T06:48:00Z,27.5400,-82.7400,-0.485,1111122 
COMPS,ioos:station:USF.COMPS:ANM:1,2008-04-01T06:54:00Z,27.5400,-82.7400,-0.49,1111122 
COMPS,ioos:station:USF.COMPS:ANM:1,2008-04-01T07:00:00Z,27.5400,-82.7400,-0.495,1111122 
COMPS,ioos:station:USF.COMPS:ANM:1,2008-04-01T07:06:00Z,27.5400,-82.7400,-0.509,1111122 
COMPS,ioos:station:USF.COMPS:ANM:1,2008-04-01T07:12:00Z,27.5400,-82.7400,-0.518,1111122 
COMPS,ioos:station:USF.COMPS:ANM:1,2008-04-01T07:18:00Z,27.5400,-82.7400,-0.52,1111122 
COMPS,ioos:station:USF.COMPS:ANM:1,2008-04-01T07:24:00Z,27.5400,-82.7400,-0.519,1111122 
COMPS,ioos:station:USF.COMPS:ANM:1,2008-04-01T07:30:00Z,27.5400,-82.7400,-0.517,1111122 
COMPS,ioos:station:USF.COMPS:ANM:1,2008-04-01T07:36:00Z,27.5400,-82.7400,-0.515,1111122 
COMPS,ioos:station:USF.COMPS:ANM:1,2008-04-01T07:42:00Z,27.5400,-82.7400,-0.512,1111122 
COMPS,ioos:station:USF.COMPS:ANM:1,2008-04-01T07:48:00Z,27.5400,-82.7400,-0.514,1111122 
COMPS,ioos:station:USF.COMPS:ANM:1,2008-04-01T07:54:00Z,27.5400,-82.7400,-0.525,1111122 
COMPS,ioos:station:USF.COMPS:ANM:1,2008-04-01T08:00:00Z,27.5400,-82.7400,-0.528,1111122 
COMPS,ioos:station:USF.COMPS:ANM:1,2008-04-01T08:06:00Z,27.5400,-82.7400,-0.54,1111122 
COMPS,ioos:station:USF.COMPS:ANM:1,2008-04-01T08:12:00Z,27.5400,-82.7400,-0.53,1111122 
COMPS,ioos:station:USF.COMPS:ANM:1,2008-04-01T08:18:00Z,27.5400,-82.7400,-0.528,1111122 
COMPS,ioos:station:USF.COMPS:ANM:1,2008-04-01T08:24:00Z,27.5400,-82.7400,-0.526,1111122 
COMPS,ioos:station:USF.COMPS:ANM:1,2008-04-01T08:30:00Z,27.5400,-82.7400,-0.519,1111122 
COMPS,ioos:station:USF.COMPS:ANM:1,2008-04-01T08:36:00Z,27.5400,-82.7400,-0.513,1111122 
COMPS,ioos:station:USF.COMPS:ANM:1,2008-04-01T08:42:00Z,27.5400,-82.7400,-0.51,1111122 
COMPS,ioos:station:USF.COMPS:ANM:1,2008-04-01T08:48:00Z,27.5400,-82.7400,-0.511,1111122 
COMPS,ioos:station:USF.COMPS:ANM:1,2008-04-01T08:54:00Z,27.5400,-82.7400,-0.494,1111122 
COMPS,ioos:station:USF.COMPS:ANM:1,2008-04-01T09:00:00Z,27.5400,-82.7400,-0.469,1111122 
COMPS,ioos:station:USF.COMPS:ANM:1,2008-04-01T09:06:00Z,27.5400,-82.7400,-0.469,1111122 
COMPS,ioos:station:USF.COMPS:ANM:1,2008-04-01T09:12:00Z,27.5400,-82.7400,-0.461,1111122 
COMPS,ioos:station:USF.COMPS:ANM:1,2008-04-01T09:18:00Z,27.5400,-82.7400,-0.458,1111122 
COMPS,ioos:station:USF.COMPS:ANM:1,2008-04-01T09:24:00Z,27.5400,-82.7400,-0.454,1111122 
COMPS,ioos:station:USF.COMPS:ANM:1,2008-04-01T09:30:00Z,27.5400,-82.7400,-0.453,1111122 
COMPS,ioos:station:USF.COMPS:ANM:1,2008-04-01T09:36:00Z,27.5400,-82.7400,-0.438,1111122 
COMPS,ioos:station:USF.COMPS:ANM:1,2008-04-01T09:42:00Z,27.5400,-82.7400,-0.414,1111122 
COMPS,ioos:station:USF.COMPS:ANM:1,2008-04-01T09:48:00Z,27.5400,-82.7400,-0.396,1111122 
COMPS,ioos:station:USF.COMPS:ANM:1,2008-04-01T09:54:00Z,27.5400,-82.7400,-0.407,1111122 
COMPS,ioos:station:USF.COMPS:ANM:1,2008-04-01T10:00:00Z,27.5400,-82.7400,-0.421,1111122 
COMPS,ioos:station:USF.COMPS:ANM:1,2008-04-01T10:06:00Z,27.5400,-82.7400,-0.402,1111122 
COMPS,ioos:station:USF.COMPS:ANM:1,2008-04-01T10:12:00Z,27.5400,-82.7400,-0.377,1111122 
COMPS,ioos:station:USF.COMPS:ANM:1,2008-04-01T10:18:00Z,27.5400,-82.7400,-0.358,1111122 
COMPS,ioos:station:USF.COMPS:ANM:1,2008-04-01T10:24:00Z,27.5400,-82.7400,-0.348,1111122 
COMPS,ioos:station:USF.COMPS:ANM:1,2008-04-01T10:30:00Z,27.5400,-82.7400,-0.346,1111122 
COMPS,ioos:station:USF.COMPS:ANM:1,2008-04-01T10:36:00Z,27.5400,-82.7400,-0.344,1111122 
COMPS,ioos:station:USF.COMPS:ANM:1,2008-04-01T10:42:00Z,27.5400,-82.7400,-0.338,1111122 
COMPS,ioos:station:USF.COMPS:ANM:1,2008-04-01T10:48:00Z,27.5400,-82.7400,-0.326,1111122 
COMPS,ioos:station:USF.COMPS:ANM:1,2008-04-01T10:54:00Z,27.5400,-82.7400,-0.314,1111122 
COMPS,ioos:station:USF.COMPS:ANM:1,2008-04-01T11:00:00Z,27.5400,-82.7400,-0.301,1111122 
COMPS,ioos:station:USF.COMPS:ANM:1,2008-04-01T11:06:00Z,27.5400,-82.7400,-0.283,1111122 
COMPS,ioos:station:USF.COMPS:ANM:1,2008-04-01T11:12:00Z,27.5400,-82.7400,-0.268,1111122 
COMPS,ioos:station:USF.COMPS:ANM:1,2008-04-01T11:18:00Z,27.5400,-82.7400,-0.265,1111122 
COMPS,ioos:station:USF.COMPS:ANM:1,2008-04-01T11:24:00Z,27.5400,-82.7400,-0.263,1111122 
COMPS,ioos:station:USF.COMPS:ANM:1,2008-04-01T11:30:00Z,27.5400,-82.7400,-0.25,1111122 
COMPS,ioos:station:USF.COMPS:ANM:1,2008-04-01T11:36:00Z,27.5400,-82.7400,-0.237,1111122 
COMPS,ioos:station:USF.COMPS:ANM:1,2008-04-01T11:42:00Z,27.5400,-82.7400,-0.235,1111122 
COMPS,ioos:station:USF.COMPS:ANM:1,2008-04-01T11:48:00Z,27.5400,-82.7400,-0.23,1111122 
COMPS,ioos:station:USF.COMPS:ANM:1,2008-04-01T11:54:00Z,27.5400,-82.7400,-0.223,1111122 
COMPS,ioos:station:USF.COMPS:ANM:1,2008-04-01T12:00:00Z,27.5400,-82.7400,-0.221,1111122 
COMPS,ioos:station:USF.COMPS:ANM:1,2008-04-01T12:06:00Z,27.5400,-82.7400,-0.201,1111122 
COMPS,ioos:station:USF.COMPS:ANM:1,2008-04-01T12:12:00Z,27.5400,-82.7400,-0.19,1111122 
COMPS,ioos:station:USF.COMPS:ANM:1,2008-04-01T12:18:00Z,27.5400,-82.7400,-0.186,1111122 
COMPS,ioos:station:USF.COMPS:ANM:1,2008-04-01T12:24:00Z,27.5400,-82.7400,-0.179,1111122 
COMPS,ioos:station:USF.COMPS:ANM:1,2008-04-01T12:30:00Z,27.5400,-82.7400,-0.167,1111122 
COMPS,ioos:station:USF.COMPS:ANM:1,2008-04-01T12:36:00Z,27.5400,-82.7400,-0.153,1111122 
COMPS,ioos:station:USF.COMPS:ANM:1,2008-04-01T12:42:00Z,27.5400,-82.7400,-0.15,1111122 
COMPS,ioos:station:USF.COMPS:ANM:1,2008-04-01T12:48:00Z,27.5400,-82.7400,-0.142,1111122 
COMPS,ioos:station:USF.COMPS:ANM:1,2008-04-01T12:54:00Z,27.5400,-82.7400,-0.131,1111122 
COMPS,ioos:station:USF.COMPS:ANM:1,2008-04-01T13:00:00Z,27.5400,-82.7400,-0.124,1111122 
COMPS,ioos:station:USF.COMPS:ANM:1,2008-04-01T13:06:00Z,27.5400,-82.7400,-0.128,1111122 
COMPS,ioos:station:USF.COMPS:ANM:1,2008-04-01T13:12:00Z,27.5400,-82.7400,-0.125,1111122 
COMPS,ioos:station:USF.COMPS:ANM:1,2008-04-01T13:18:00Z,27.5400,-82.7400,-0.119,1111122 
COMPS,ioos:station:USF.COMPS:ANM:1,2008-04-01T13:24:00Z,27.5400,-82.7400,-0.105,1111122 
COMPS,ioos:station:USF.COMPS:ANM:1,2008-04-01T13:30:00Z,27.5400,-82.7400,-0.09,1111122 
COMPS,ioos:station:USF.COMPS:ANM:1,2008-04-01T13:36:00Z,27.5400,-82.7400,-0.08,1111122 
COMPS,ioos:station:USF.COMPS:ANM:1,2008-04-01T13:42:00Z,27.5400,-82.7400,-0.078,1111122 
COMPS,ioos:station:USF.COMPS:ANM:1,2008-04-01T13:48:00Z,27.5400,-82.7400,-0.069,1111122 
COMPS,ioos:station:USF.COMPS:ANM:1,2008-04-01T13:54:00Z,27.5400,-82.7400,-0.064,1111122 
COMPS,ioos:station:USF.COMPS:ANM:1,2008-04-01T14:00:00Z,27.5400,-82.7400,-0.059,1111122 
COMPS,ioos:station:USF.COMPS:ANM:1,2008-04-01T14:06:00Z,27.5400,-82.7400,-0.054,1111122 
COMPS,ioos:station:USF.COMPS:ANM:1,2008-04-01T14:12:00Z,27.5400,-82.7400,-0.036,1111122 
COMPS,ioos:station:USF.COMPS:ANM:1,2008-04-01T14:18:00Z,27.5400,-82.7400,-0.027,1111122 
COMPS,ioos:station:USF.COMPS:ANM:1,2008-04-01T14:24:00Z,27.5400,-82.7400,-0.028,1111122 
COMPS,ioos:station:USF.COMPS:ANM:1,2008-04-01T14:30:00Z,27.5400,-82.7400,-0.037,1111122 
COMPS,ioos:station:USF.COMPS:ANM:1,2008-04-01T14:36:00Z,27.5400,-82.7400,-0.034,1111122 
COMPS,ioos:station:USF.COMPS:ANM:1,2008-04-01T14:42:00Z,27.5400,-82.7400,-0.042,1111122 
COMPS,ioos:station:USF.COMPS:ANM:1,2008-04-01T14:48:00Z,27.5400,-82.7400,-0.046,1111122 
COMPS,ioos:station:USF.COMPS:ANM:1,2008-04-01T14:54:00Z,27.5400,-82.7400,-0.025,1111122 
COMPS,ioos:station:USF.COMPS:ANM:1,2008-04-01T15:00:00Z,27.5400,-82.7400,-0.019,1111122 
COMPS,ioos:station:USF.COMPS:ANM:1,2008-04-01T15:06:00Z,27.5400,-82.7400,-0.029,1111122 
COMPS,ioos:station:USF.COMPS:ANM:1,2008-04-01T15:12:00Z,27.5400,-82.7400,-0.027,1111122 
COMPS,ioos:station:USF.COMPS:ANM:1,2008-04-01T15:18:00Z,27.5400,-82.7400,-0.033,1111122 
COMPS,ioos:station:USF.COMPS:ANM:1,2008-04-01T15:24:00Z,27.5400,-82.7400,-0.034,1111122 
COMPS,ioos:station:USF.COMPS:ANM:1,2008-04-01T15:30:00Z,27.5400,-82.7400,-0.04,1111122 
COMPS,ioos:station:USF.COMPS:ANM:1,2008-04-01T15:36:00Z,27.5400,-82.7400,-0.03,1111122 
COMPS,ioos:station:USF.COMPS:ANM:1,2008-04-01T15:42:00Z,27.5400,-82.7400,-0.029,1111122 
COMPS,ioos:station:USF.COMPS:ANM:1,2008-04-01T15:48:00Z,27.5400,-82.7400,-0.026,1111122 
COMPS,ioos:station:USF.COMPS:ANM:1,2008-04-01T15:54:00Z,27.5400,-82.7400,-0.019,1111122 
COMPS,ioos:station:USF.COMPS:ANM:1,2008-04-01T16:00:00Z,27.5400,-82.7400,-0.022,1111122 
COMPS,ioos:station:USF.COMPS:ANM:1,2008-04-01T16:06:00Z,27.5400,-82.7400,-0.034,1111122 
COMPS,ioos:station:USF.COMPS:ANM:1,2008-04-01T16:12:00Z,27.5400,-82.7400,-0.041,1111122 
COMPS,ioos:station:USF.COMPS:ANM:1,2008-04-01T16:18:00Z,27.5400,-82.7400,-0.04,1111122 
COMPS,ioos:station:USF.COMPS:ANM:1,2008-04-01T16:24:00Z,27.5400,-82.7400,-0.034,1111122 
COMPS,ioos:station:USF.COMPS:ANM:1,2008-04-01T16:30:00Z,27.5400,-82.7400,-0.037,1111122 
COMPS,ioos:station:USF.COMPS:ANM:1,2008-04-01T16:36:00Z,27.5400,-82.7400,-0.034,1111122 
COMPS,ioos:station:USF.COMPS:ANM:1,2008-04-01T16:42:00Z,27.5400,-82.7400,-0.037,1111122 
COMPS,ioos:station:USF.COMPS:ANM:1,2008-04-01T16:48:00Z,27.5400,-82.7400,-0.045,1111122 
COMPS,ioos:station:USF.COMPS:ANM:1,2008-04-01T16:54:00Z,27.5400,-82.7400,-0.05,1111122 
COMPS,ioos:station:USF.COMPS:ANM:1,2008-04-01T17:00:00Z,27.5400,-82.7400,-0.058,1111122 
COMPS,ioos:station:USF.COMPS:ANM:1,2008-04-01T17:06:00Z,27.5400,-82.7400,-0.07,1111122 
COMPS,ioos:station:USF.COMPS:ANM:1,2008-04-01T17:12:00Z,27.5400,-82.7400,-0.074,1111122 
COMPS,ioos:station:USF.COMPS:ANM:1,2008-04-01T17:18:00Z,27.5400,-82.7400,-0.069,1111122 
COMPS,ioos:station:USF.COMPS:ANM:1,2008-04-01T17:24:00Z,27.5400,-82.7400,-0.072,1111122 
COMPS,ioos:station:USF.COMPS:ANM:1,2008-04-01T17:30:00Z,27.5400,-82.7400,-0.077,1111122 
COMPS,ioos:station:USF.COMPS:ANM:1,2008-04-01T17:36:00Z,27.5400,-82.7400,-0.085,1111122 
COMPS,ioos:station:USF.COMPS:ANM:1,2008-04-01T17:42:00Z,27.5400,-82.7400,-0.092,1111122 
COMPS,ioos:station:USF.COMPS:ANM:1,2008-04-01T17:48:00Z,27.5400,-82.7400,-0.103,1111122 
COMPS,ioos:station:USF.COMPS:ANM:1,2008-04-01T17:54:00Z,27.5400,-82.7400,-0.106,1111122 
COMPS,ioos:station:USF.COMPS:ANM:1,2008-04-01T18:00:00Z,27.5400,-82.7400,-0.115,1111122 
COMPS,ioos:station:USF.COMPS:ANM:1,2008-04-01T18:06:00Z,27.5400,-82.7400,-0.124,1111122 
COMPS,ioos:station:USF.COMPS:ANM:1,2008-04-01T18:12:00Z,27.5400,-82.7400,-0.119,1111122 
COMPS,ioos:station:USF.COMPS:ANM:1,2008-04-01T18:18:00Z,27.5400,-82.7400,-0.121,1111122 
COMPS,ioos:station:USF.COMPS:ANM:1,2008-04-01T18:24:00Z,27.5400,-82.7400,-0.133,1111122 
COMPS,ioos:station:USF.COMPS:ANM:1,2008-04-01T18:30:00Z,27.5400,-82.7400,-0.134,1111122 
COMPS,ioos:station:USF.COMPS:ANM:1,2008-04-01T18:36:00Z,27.5400,-82.7400,-0.129,1111122 
COMPS,ioos:station:USF.COMPS:ANM:1,2008-04-01T18:42:00Z,27.5400,-82.7400,-0.127,1111122 
COMPS,ioos:station:USF.COMPS:ANM:1,2008-04-01T18:48:00Z,27.5400,-82.7400,-0.129,1111122 
COMPS,ioos:station:USF.COMPS:ANM:1,2008-04-01T18:54:00Z,27.5400,-82.7400,-0.131,1111122 
COMPS,ioos:station:USF.COMPS:ANM:1,2008-04-01T19:00:00Z,27.5400,-82.7400,-0.137,1111122 
COMPS,ioos:station:USF.COMPS:ANM:1,2008-04-01T19:06:00Z,27.5400,-82.7400,-0.123,1111122 
COMPS,ioos:station:USF.COMPS:ANM:1,2008-04-01T19:12:00Z,27.5400,-82.7400,-0.126,1111122 
COMPS,ioos:station:USF.COMPS:ANM:1,2008-04-01T19:18:00Z,27.5400,-82.7400,-0.133,1111122 
COMPS,ioos:station:USF.COMPS:ANM:1,2008-04-01T19:24:00Z,27.5400,-82.7400,-0.141,1111122 
COMPS,ioos:station:USF.COMPS:ANM:1,2008-04-01T19:30:00Z,27.5400,-82.7400,-0.14,1111122 
COMPS,ioos:station:USF.COMPS:ANM:1,2008-04-01T19:36:00Z,27.5400,-82.7400,-0.127,1111122 
COMPS,ioos:station:USF.COMPS:ANM:1,2008-04-01T19:42:00Z,27.5400,-82.7400,-0.137,1111122 
COMPS,ioos:station:USF.COMPS:ANM:1,2008-04-01T19:48:00Z,27.5400,-82.7400,-0.147,1111122 
COMPS,ioos:station:USF.COMPS:ANM:1,2008-04-01T19:54:00Z,27.5400,-82.7400,-0.144,1111122 
COMPS,ioos:station:USF.COMPS:ANM:1,2008-04-01T21:00:00Z,27.5400,-82.7400,-0.115,1111122 
COMPS,ioos:station:USF.COMPS:ANM:1,2008-04-01T21:06:00Z,27.5400,-82.7400,-0.097,1111122 
COMPS,ioos:station:USF.COMPS:ANM:1,2008-04-01T21:12:00Z,27.5400,-82.7400,-0.078,1111122 
COMPS,ioos:station:USF.COMPS:ANM:1,2008-04-01T21:18:00Z,27.5400,-82.7400,-0.083,1111122 
COMPS,ioos:station:USF.COMPS:ANM:1,2008-04-01T21:24:00Z,27.5400,-82.7400,-0.094,1111122 
COMPS,ioos:station:USF.COMPS:ANM:1,2008-04-01T21:30:00Z,27.5400,-82.7400,-0.088,1111122 
COMPS,ioos:station:USF.COMPS:ANM:1,2008-04-01T21:36:00Z,27.5400,-82.7400,-0.072,1111122 
COMPS,ioos:station:USF.COMPS:ANM:1,2008-04-01T21:42:00Z,27.5400,-82.7400,-0.056,1111122 
COMPS,ioos:station:USF.COMPS:ANM:1,2008-04-01T21:48:00Z,27.5400,-82.7400,-0.044,1111122 
COMPS,ioos:station:USF.COMPS:ANM:1,2008-04-01T21:54:00Z,27.5400,-82.7400,-0.042,1111122 
COMPS,ioos:station:USF.COMPS:ANM:1,2008-04-01T22:00:00Z,27.5400,-82.7400,-0.036,1111122 
COMPS,ioos:station:USF.COMPS:ANM:1,2008-04-01T22:06:00Z,27.5400,-82.7400,-0.033,1111122 
COMPS,ioos:station:USF.COMPS:ANM:1,2008-04-01T22:12:00Z,27.5400,-82.7400,-0.027,1111122 
COMPS,ioos:station:USF.COMPS:ANM:1,2008-04-01T22:18:00Z,27.5400,-82.7400,-0.011,1111122 
COMPS,ioos:station:USF.COMPS:ANM:1,2008-04-01T22:24:00Z,27.5400,-82.7400,-0.004,1111122 
COMPS,ioos:station:USF.COMPS:ANM:1,2008-04-01T22:30:00Z,27.5400,-82.7400,-0.001,1111122 
COMPS,ioos:station:USF.COMPS:ANM:1,2008-04-01T22:36:00Z,27.5400,-82.7400,0.006,1111122 
COMPS,ioos:station:USF.COMPS:ANM:1,2008-04-01T22:42:00Z,27.5400,-82.7400,0.016,1111122 
COMPS,ioos:station:USF.COMPS:ANM:1,2008-04-01T22:48:00Z,27.5400,-82.7400,0.022,1111122 
COMPS,ioos:station:USF.COMPS:ANM:1,2008-04-01T22:54:00Z,27.5400,-82.7400,0.029,1111122 
COMPS,ioos:station:USF.COMPS:ANM:1,2008-04-01T23:00:00Z,27.5400,-82.7400,0.031,1111122 
COMPS,ioos:station:USF.COMPS:ANM:1,2008-04-01T23:06:00Z,27.5400,-82.7400,0.038,1111122 
COMPS,ioos:station:USF.COMPS:ANM:1,2008-04-01T23:12:00Z,27.5400,-82.7400,0.051,1111122 
COMPS,ioos:station:USF.COMPS:ANM:1,2008-04-01T23:18:00Z,27.5400,-82.7400,0.055,1111122 
COMPS,ioos:station:USF.COMPS:ANM:1,2008-04-01T23:24:00Z,27.5400,-82.7400,0.056,1111122 
COMPS,ioos:station:USF.COMPS:ANM:1,2008-04-01T23:30:00Z,27.5400,-82.7400,0.055,1111122 
COMPS,ioos:station:USF.COMPS:ANM:1,2008-04-01T23:36:00Z,27.5400,-82.7400,0.063,1111122 
COMPS,ioos:station:USF.COMPS:ANM:1,2008-04-01T23:42:00Z,27.5400,-82.7400,0.068,1111122 
COMPS,ioos:station:USF.COMPS:ANM:1,2008-04-01T23:48:00Z,27.5400,-82.7400,0.076,1111122 
COMPS,ioos:station:USF.COMPS:ANM:1,2008-04-01T23:54:00Z,27.5400,-82.7400,0.086,1111122 
COMPS,ioos:station:USF.COMPS:ANM:1,2008-04-02T01:00:00Z,27.5400,-82.7400,0.111,1111122 
COMPS,ioos:station:USF.COMPS:ANM:1,2008-04-02T01:06:00Z,27.5400,-82.7400,0.103,1111122 
COMPS,ioos:station:USF.COMPS:ANM:1,2008-04-02T01:12:00Z,27.5400,-82.7400,0.093,1111122 
COMPS,ioos:station:USF.COMPS:ANM:1,2008-04-02T01:18:00Z,27.5400,-82.7400,0.076,1111122 
COMPS,ioos:station:USF.COMPS:ANM:1,2008-04-02T01:24:00Z,27.5400,-82.7400,0.068,1111122 
COMPS,ioos:station:USF.COMPS:ANM:1,2008-04-02T01:30:00Z,27.5400,-82.7400,0.06,1111122 
COMPS,ioos:station:USF.COMPS:ANM:1,2008-04-02T01:36:00Z,27.5400,-82.7400,0.048,1111122 
COMPS,ioos:station:USF.COMPS:ANM:1,2008-04-02T01:42:00Z,27.5400,-82.7400,0.033,1111122 
COMPS,ioos:station:USF.COMPS:ANM:1,2008-04-02T01:48:00Z,27.5400,-82.7400,0.034,1111122 
COMPS,ioos:station:USF.COMPS:ANM:1,2008-04-02T01:54:00Z,27.5400,-82.7400,0.033,1111122 
COMPS,ioos:station:USF.COMPS:ANM:1,2008-04-02T02:00:00Z,27.5400,-82.7400,0.031,1111122 
COMPS,ioos:station:USF.COMPS:ANM:1,2008-04-02T02:06:00Z,27.5400,-82.7400,0.033,1111122 
COMPS,ioos:station:USF.COMPS:ANM:1,2008-04-02T02:12:00Z,27.5400,-82.7400,0.027,1111122 
COMPS,ioos:station:USF.COMPS:ANM:1,2008-04-02T02:18:00Z,27.5400,-82.7400,0.028,1111122 
COMPS,ioos:station:USF.COMPS:ANM:1,2008-04-02T02:24:00Z,27.5400,-82.7400,0.026,1111122 
COMPS,ioos:station:USF.COMPS:ANM:1,2008-04-02T02:30:00Z,27.5400,-82.7400,0.008,1111122 
COMPS,ioos:station:USF.COMPS:ANM:1,2008-04-02T02:36:00Z,27.5400,-82.7400,0.0,1114422 
COMPS,ioos:station:USF.COMPS:ANM:1,2008-04-02T02:42:00Z,27.5400,-82.7400,-0.019,1111122 
COMPS,ioos:station:USF.COMPS:ANM:1,2008-04-02T02:48:00Z,27.5400,-82.7400,-0.029,1111122 
COMPS,ioos:station:USF.COMPS:ANM:1,2008-04-02T02:54:00Z,27.5400,-82.7400,-0.033,1111122 
COMPS,ioos:station:USF.COMPS:ANM:1,2008-04-02T03:00:00Z,27.5400,-82.7400,-0.038,1111122 
COMPS,ioos:station:USF.COMPS:ANM:1,2008-04-02T03:06:00Z,27.5400,-82.7400,-0.052,1111122 
COMPS,ioos:station:USF.COMPS:ANM:1,2008-04-02T03:12:00Z,27.5400,-82.7400,-0.061,1111122 
COMPS,ioos:station:USF.COMPS:ANM:1,2008-04-02T03:18:00Z,27.5400,-82.7400,-0.07,1111122 
COMPS,ioos:station:USF.COMPS:ANM:1,2008-04-02T03:24:00Z,27.5400,-82.7400,-0.079,1111122 
COMPS,ioos:station:USF.COMPS:ANM:1,2008-04-02T03:30:00Z,27.5400,-82.7400,-0.092,1111122 
COMPS,ioos:station:USF.COMPS:ANM:1,2008-04-02T03:36:00Z,27.5400,-82.7400,-0.103,1111122 
COMPS,ioos:station:USF.COMPS:ANM:1,2008-04-02T03:42:00Z,27.5400,-82.7400,-0.116,1111122 
COMPS,ioos:station:USF.COMPS:ANM:1,2008-04-02T03:48:00Z,27.5400,-82.7400,-0.124,1111122 
COMPS,ioos:station:USF.COMPS:ANM:1,2008-04-02T03:54:00Z,27.5400,-82.7400,-0.126,1111122 
COMPS,ioos:station:USF.COMPS:ANM:1,2008-04-02T04:00:00Z,27.5400,-82.7400,-0.129,1111122 
COMPS,ioos:station:USF.COMPS:ANM:1,2008-04-02T04:06:00Z,27.5400,-82.7400,-0.13,1111122 
COMPS,ioos:station:USF.COMPS:ANM:1,2008-04-02T04:12:00Z,27.5400,-82.7400,-0.145,1111122 
COMPS,ioos:station:USF.COMPS:ANM:1,2008-04-02T04:18:00Z,27.5400,-82.7400,-0.151,1111122 
COMPS,ioos:station:USF.COMPS:ANM:1,2008-04-02T04:24:00Z,27.5400,-82.7400,-0.167,1111122 
COMPS,ioos:station:USF.COMPS:ANM:1,2008-04-02T04:30:00Z,27.5400,-82.7400,-0.172,1111122 
COMPS,ioos:station:USF.COMPS:ANM:1,2008-04-02T04:36:00Z,27.5400,-82.7400,-0.175,1111122 
COMPS,ioos:station:USF.COMPS:ANM:1,2008-04-02T04:42:00Z,27.5400,-82.7400,-0.183,1111122 
COMPS,ioos:station:USF.COMPS:ANM:1,2008-04-02T04:48:00Z,27.5400,-82.7400,-0.185,1111122 